Time,TemperatureF,DewpointF,PressureIn,WindDirection,WindDirectionDegrees,WindSpeedMPH,WindSpeedGustMPH,Humidity,HourlyPrecipIn,Conditions,Clouds,dailyrainin,SoftwareType,DateUTC
2013-05-30 07:00:00,62.2,61.9,29.90,SSW,202,0.0,-999.0,99,-99.99,,,0.00,Acu-Link.com,2013-05-30 11:00:00,
2013-05-30 07:16:00,66.4,65.8,29.91,ESE,112,0.0,-999.0,98,-99.99,,,0.00,Acu-Link.com,2013-05-30 11:16:00,
2013-05-30 07:31:00,68.4,65.7,29.91,East,90,0.0,-999.0,91,-99.99,,,0.00,Acu-Link.com,2013-05-30 11:31:00,
2013-05-30 07:46:00,72.5,68.4,29.92,SSE,157,0.0,-999.0,87,-99.99,,,0.00,Acu-Link.com,2013-05-30 11:46:00,
2013-05-30 08:01:00,75.4,68.0,29.92,West,270,0.0,-999.0,78,-99.99,,,0.00,Acu-Link.com,2013-05-30 12:01:00,
2013-05-30 08:16:00,76.3,67.4,29.93,West,270,0.0,-999.0,74,-99.99,,,0.00,Acu-Link.com,2013-05-30 12:16:00,
2013-05-30 08:31:00,78.6,67.6,29.93,SSW,202,1.1,-999.0,69,-99.99,,,0.00,Acu-Link.com,2013-05-30 12:31:00,
2013-05-30 08:46:00,80.1,67.3,29.93,SW,225,1.1,-999.0,65,-99.99,,,0.00,Acu-Link.com,2013-05-30 12:46:00,
2013-05-30 09:01:00,80.8,67.0,29.93,WSW,247,1.7,-999.0,63,-99.99,,,0.00,Acu-Link.com,2013-05-30 13:01:00,
2013-05-30 09:16:00,82.0,67.7,29.93,West,270,1.7,-999.0,62,-99.99,,,0.00,Acu-Link.com,2013-05-30 13:16:00,
2013-05-30 09:32:00,83.3,67.4,29.92,West,270,1.7,-999.0,59,-99.99,,,0.00,Acu-Link.com,2013-05-30 13:32:00,
2013-05-30 09:48:00,79.3,67.4,29.92,SW,225,3.7,-999.0,67,-99.99,,,0.00,Acu-Link.com,2013-05-30 13:48:00,
2013-05-30 10:05:00,79.5,65.8,29.92,SSW,202,2.2,-999.0,63,-99.99,,,0.00,Acu-Link.com,2013-05-30 14:05:00,
2013-05-30 10:27:00,79.7,64.6,29.91,SSW,202,2.7,-999.0,60,-99.99,,,0.00,Acu-Link.com,2013-05-30 14:27:00,
2013-05-30 10:44:00,80.8,66.1,29.91,ESE,112,2.7,-999.0,61,-99.99,,,0.00,Acu-Link.com,2013-05-30 14:44:00,
2013-05-30 11:00:00,80.8,65.6,29.89,SW,225,6.3,-999.0,60,-99.99,,,0.00,Acu-Link.com,2013-05-30 15:00:00,
2013-05-30 11:15:00,82.2,67.9,29.88,SW,225,2.7,-999.0,62,-99.99,,,0.00,Acu-Link.com,2013-05-30 15:15:00,
2013-05-30 11:31:00,82.4,67.1,29.89,WSW,247,3.7,-999.0,60,-99.99,,,0.00,Acu-Link.com,2013-05-30 15:31:00,
2013-05-30 11:46:00,82.2,67.4,29.88,SSW,202,2.7,-999.0,61,-99.99,,,0.00,Acu-Link.com,2013-05-30 15:46:00,
2013-05-30 12:04:00,82.6,66.8,29.88,WSW,247,2.2,-999.0,59,-99.99,,,0.00,Acu-Link.com,2013-05-30 16:04:00,
2013-05-30 12:19:00,84.0,67.6,29.88,SSW,202,2.2,-999.0,58,-99.99,,,0.00,Acu-Link.com,2013-05-30 16:19:00,
2013-05-30 12:34:00,84.7,68.3,29.88,ESE,112,2.7,-999.0,58,-99.99,,,0.00,Acu-Link.com,2013-05-30 16:34:00,
2013-05-30 12:49:00,85.3,68.3,29.87,East,90,3.7,-999.0,57,-99.99,,,0.00,Acu-Link.com,2013-05-30 16:49:00,
2013-05-30 13:04:00,86.5,69.4,29.87,SW,225,1.7,-999.0,57,-99.99,,,0.00,Acu-Link.com,2013-05-30 17:04:00,
2013-05-30 13:19:00,86.2,68.6,29.87,WSW,247,3.7,-999.0,56,-99.99,,,0.00,Acu-Link.com,2013-05-30 17:19:00,
2013-05-30 13:35:00,85.8,68.3,29.87,SE,135,2.7,-999.0,56,-99.99,,,0.00,Acu-Link.com,2013-05-30 17:35:00,
2013-05-30 13:50:00,85.8,68.3,29.86,West,270,2.7,-999.0,56,-99.99,,,0.00,Acu-Link.com,2013-05-30 17:50:00,
2013-05-30 14:05:00,86.7,68.6,29.86,SW,225,2.2,-999.0,55,-99.99,,,0.00,Acu-Link.com,2013-05-30 18:05:00,
2013-05-30 14:20:00,87.8,68.5,29.86,South,180,3.2,-999.0,53,-99.99,,,0.00,Acu-Link.com,2013-05-30 18:20:00,
2013-05-30 14:35:00,87.1,69.5,29.85,West,270,2.7,-999.0,56,-99.99,,,0.00,Acu-Link.com,2013-05-30 18:35:00,
2013-05-30 14:50:00,88.0,69.8,29.85,SW,225,2.7,-999.0,55,-99.99,,,0.00,Acu-Link.com,2013-05-30 18:50:00,
2013-05-30 15:05:00,86.9,68.8,29.84,South,180,1.7,-999.0,55,-99.99,,,0.00,Acu-Link.com,2013-05-30 19:05:00,
2013-05-30 15:20:00,88.7,67.0,29.83,South,180,1.7,-999.0,49,-99.99,,,0.00,Acu-Link.com,2013-05-30 19:20:00,
2013-05-30 15:35:00,88.2,70.0,29.82,SW,225,2.2,-999.0,55,-99.99,,,0.00,Acu-Link.com,2013-05-30 19:35:00,
2013-05-30 15:51:00,89.1,70.3,29.82,West,270,4.7,-999.0,54,-99.99,,,0.00,Acu-Link.com,2013-05-30 19:51:00,
2013-05-30 16:06:00,87.3,66.9,29.81,SW,225,2.7,-999.0,51,-99.99,,,0.00,Acu-Link.com,2013-05-30 20:06:00,
2013-05-30 16:21:00,87.1,68.4,29.80,NE,45,2.7,-999.0,54,-99.99,,,0.00,Acu-Link.com,2013-05-30 20:21:00,
2013-05-30 16:36:00,86.7,68.6,29.80,SE,135,5.3,-999.0,55,-99.99,,,0.00,Acu-Link.com,2013-05-30 20:36:00,
2013-05-30 16:51:00,86.4,67.2,29.80,SW,225,2.7,-999.0,53,-99.99,,,0.00,Acu-Link.com,2013-05-30 20:51:00,
2013-05-30 17:06:00,87.1,67.3,29.79,SE,135,2.7,-999.0,52,-99.99,,,0.00,Acu-Link.com,2013-05-30 21:06:00,
2013-05-30 17:21:00,87.3,66.9,29.79,East,90,2.2,-999.0,51,-99.99,,,0.00,Acu-Link.com,2013-05-30 21:21:00,
2013-05-30 17:37:00,87.1,67.9,29.79,WSW,247,1.7,-999.0,53,-99.99,,,0.00,Acu-Link.com,2013-05-30 21:37:00,
2013-05-30 17:53:00,87.3,65.2,29.79,SW,225,1.7,-999.0,48,-99.99,,,0.00,Acu-Link.com,2013-05-30 21:53:00,
2013-05-30 18:08:00,87.6,67.8,29.78,South,180,0.0,-999.0,52,-99.99,,,0.00,Acu-Link.com,2013-05-30 22:08:00,
2013-05-30 18:23:00,87.8,66.8,29.78,South,180,2.2,-999.0,50,-99.99,,,0.00,Acu-Link.com,2013-05-30 22:23:00,
2013-05-30 18:38:00,91.0,67.3,29.77,ESE,112,2.2,-999.0,46,-99.99,,,0.00,Acu-Link.com,2013-05-30 22:38:00,
2013-05-30 18:53:00,88.5,66.9,29.76,SSW,202,1.7,-999.0,49,-99.99,,,0.00,Acu-Link.com,2013-05-30 22:53:00,
2013-05-30 19:08:00,88.5,66.3,29.77,West,270,0.0,-999.0,48,-99.99,,,0.00,Acu-Link.com,2013-05-30 23:08:00,
2013-05-30 19:24:00,87.8,66.8,29.77,North,0,1.1,-999.0,50,-99.99,,,0.00,Acu-Link.com,2013-05-30 23:24:00,
2013-05-30 19:39:00,87.8,66.8,29.77,NE,45,0.0,-999.0,50,-99.99,,,0.00,Acu-Link.com,2013-05-30 23:39:00,
2013-05-30 19:54:00,84.9,66.9,29.77,SE,135,1.1,-999.0,55,-99.99,,,0.00,Acu-Link.com,2013-05-30 23:54:00,
2013-05-30 20:09:00,84.6,66.6,29.78,NW,315,2.2,-999.0,55,-99.99,,,0.00,Acu-Link.com,2013-05-31 00:09:00,
2013-05-30 20:24:00,82.2,67.4,29.77,WNW,292,0.0,-999.0,61,-99.99,,,0.00,Acu-Link.com,2013-05-31 00:24:00,
2013-05-30 20:39:00,80.1,68.6,29.78,ENE,67,0.0,-999.0,68,-99.99,,,0.00,Acu-Link.com,2013-05-31 00:39:00,
2013-05-30 20:54:00,78.3,68.9,29.78,SW,225,0.0,-999.0,73,-99.99,,,0.00,Acu-Link.com,2013-05-31 00:54:00,
2013-05-30 21:09:00,76.5,69.1,29.78,WNW,292,0.0,-999.0,78,-99.99,,,0.00,Acu-Link.com,2013-05-31 01:09:00,
2013-05-30 21:24:00,75.2,68.2,29.78,SW,225,0.0,-999.0,79,-99.99,,,0.00,Acu-Link.com,2013-05-31 01:24:00,
2013-05-30 21:40:00,73.9,68.4,29.79,SSE,157,0.0,-999.0,83,-99.99,,,0.00,Acu-Link.com,2013-05-31 01:40:00,
2013-05-30 21:55:00,72.7,68.6,29.78,WNW,292,0.0,-999.0,87,-99.99,,,0.00,Acu-Link.com,2013-05-31 01:55:00,
2013-05-30 22:10:00,71.6,68.2,29.81,South,180,0.0,-999.0,89,-99.99,,,0.00,Acu-Link.com,2013-05-31 02:10:00,
2013-05-30 22:25:00,70.5,67.4,29.82,SE,135,0.0,-999.0,90,-99.99,,,0.00,Acu-Link.com,2013-05-31 02:25:00,
2013-05-30 22:40:00,69.3,66.2,29.81,South,180,0.0,-999.0,90,-99.99,,,0.00,Acu-Link.com,2013-05-31 02:40:00,
2013-05-30 22:55:00,68.2,66.4,29.83,South,180,0.0,-999.0,94,-99.99,,,0.00,Acu-Link.com,2013-05-31 02:55:00,
2013-05-30 23:10:00,67.5,66.0,29.83,NW,315,0.0,-999.0,95,-99.99,,,0.00,Acu-Link.com,2013-05-31 03:10:00,
2013-05-30 23:25:00,66.7,65.8,29.82,SSE,157,0.0,-999.0,97,-99.99,,,0.00,Acu-Link.com,2013-05-31 03:25:00,
2013-05-30 23:40:00,66.2,65.0,29.82,SE,135,0.0,-999.0,96,-99.99,,,0.00,Acu-Link.com,2013-05-31 03:40:00,
2013-05-30 23:56:00,65.7,64.8,29.83,ESE,112,0.0,-999.0,97,-99.99,,,0.00,Acu-Link.com,2013-05-31 03:56:00,